weather.gov     
National Weather Service

Terminal Aerodrome Forecast
NWS Homepage
This page is being discontinued on March 12, 2014.
The same data is available at this site. Please update your bookmarks.
Thank you, and we apologize for the inconvenience.
Please send an email to SR-SRH.Webmaster@noaa.gov with any concerns.


Current Version
Previous Version:    01  02  03  04  05  06  07  08  09  10  11  12  13  14  15  16  17  18  19  20  21  22  23  24  25  26  27  28  29  30  
   31  
[Printable]
418
FTUS45 KFGZ 200500
TAFGCN
TAF
KGCN 200523Z 2006/2106 VRB02KT P6SM FEW060
     FM201800 13008KT P6SM SCT050 BKN080 PROB30 2019/2101 -TSRA
      BKN050CB
     FM210100 18008KT P6SM SCT060 BKN080 PROB30 2101/2106 VRB15G25KT
      TSRA BKN060CB=


U.S. Dept. of Commerce
NOAA National Weather Service
1325 East West Highway
Silver Spring, MD 20910
E-mail: w-nws.webmaster@noaa.gov
Page last modified: May 16, 2007
NATIONAL WEATHER SERVICE: for Safety, for Work, for Fun - FOR LIFE